ラ・サグラ彗星

424P/La Sagra (2021)

English version
Home page
Updated on September 18, 2021

---------------------------------------------------------------------

・ プロフィール

符号 424P/2021 L5
検出日 2021年6月6日、7月3日
検出光度 20.6等、19.0等
検出者 Pan-STARRS 1 telescope (Haleakala), Hidetaka Sato (Tokyo, Japan)

・ 写真集

・ 軌道要素

Epoch 2021 Nov. 2.0 TT = JDT 2459520.5                                          
T 2021 Oct. 31.63292 TT                                 Rudenko                 
q   1.3626943            (2000.0)            P               Q                  
n   0.10624133     Peri.  312.47369     +0.99137933     -0.05766487             
a   4.4150985      Node    51.17840     +0.10761182     +0.87060420             
e   0.6913558      Incl.    8.68538     -0.07474431     +0.48859296             
P   9.28                                                                        
From 399 observations 2012 Sept. 23-2021 July 7, mean residual 0".7.            

・ 星図

・ 光度変化

        H - 16.0  G = 0.15

---------------------------------------------------------------------

軌道要素はM.P.E.C. 2021-N47に掲載されたものです。
星図はステラナビゲータ Ver.10 (アストロアーツ) で作成したものです。
光度グラフはComet for Windowsで作成したものです。

---------------------------------------------------------------------

Copyright(C) Seiichi Yoshida (comet@aerith.net). All rights reserved.